Volver al catálogo

CZ-6A DEB

ActivoPO
NORAD 60827·DEBRIS·🇨🇳 China

Lanzado Aug 6, 2024 desde Taiyuan Satellite Launch Center

Loading…

Próximos Pases (próximas 24 horas)

TLE

ActualizadoSource: Space-Track

Época: Sep 14, 2026, 11:36 UTC

1 60827U 24140HE  26257.48334405  .00001019  00000-0  36259-3 0  9996
2 60827  89.0706 269.8303 0036504 304.9901  54.7871 14.33327826107076

Sigue CZ-6A DEB en tiempo real con AllMySat

Download on the App Store